Regional Weather Roundup
Issued by NWS Sioux Falls, SD

Home | Current Version | Previous Version | Text Only | Print | Product List | Glossary Off
Versions: 1 2 3 4 5 6 7 8 9 10 11 12 13 14 15 16 17 18 19 20 21 22 23 24 25 26 27 28 29 30 31 32 33 34 35 36 37 38 39 40 41 42 43 44 45 46 47 48 49 50

000
ASUS43 KFSD 020010
RWRFSD

WEATHER ROUNDUP FOR SE SOUTH DAKOTA/SW MINNESOTA/NW IOWA
NATIONAL WEATHER SERVICE SIOUX FALLS SD
600 PM CST SUN MAR 01 2015

NOTE: "FAIR" INDICATES FEW OR NO CLOUDS BELOW 12,000 FEET WITH NO
SIGNIFICANT WEATHER AND OR OBSTRUCTIONS TO VISIBILITY.


SDZ038>040-050-052>070-020100-
SOUTHEAST SOUTH DAKOTA

CITY           SKY/WX    TMP DP  RH WIND       PRES   REMARKS
CHAMBERLAIN    MOCLDY    30   8  40 NW13      30.35R WCI  20
6HR MIN TEMP:  29; 6HR MAX TEMP:  36;

HURON          CLEAR     26  16  65 N10       30.36R WCI  16
6HR MIN TEMP:  26; 6HR MAX TEMP:  31;

MADISON        CLOUDY    25  19  80 NW14G20   30.32R WCI  13
MITCHELL       PTCLDY    29  13  51 NW10      30.38R WCI  20
6HR MIN TEMP:  29; 6HR MAX TEMP:  37;

SIOUX FALLS    PTCLDY    27  15  61 NW13      30.34R WCI  16
6HR MIN TEMP:  27; 6HR MAX TEMP:  33;

WINNER         FAIR      33   4  29 NW16      30.34R WCI  23
YANKTON        PTCLDY    34   7  32 NW15      30.37R WCI  24
$$

MNZ071-072-080-081-089-090-097-098-020100-
SOUTHWEST MINNESOTA

CITY           SKY/WX    TMP DP  RH WIND       PRES   REMARKS
FAIRMONT       MOCLDY    28  12  50 W16       30.28R WCI  17
JACKSON        MOCLDY    28  16  59 W15       30.29R WCI  17
LUVERNE        CLEAR     28  19  69 NW13      30.33R WCI  18
MARSHALL       PTCLDY    25  16  68 NW16      30.32R WCI  12
6HR MIN TEMP:  25; 6HR MAX TEMP:  28;

MONTEVIDEO     CLOUDY    25  16  68 NW13      30.31R WCI  13
PIPESTONE      CLEAR     25  18  74 NW13      30.30R WCI  13
REDWOOD FALLS  PTCLDY    26  16  65 NW18      30.29R WCI  13
TRACY          CLOUDY    27  19  70 NW12      30.30R WCI  17
WINDOM         CLOUDY    27  18  69 W20G25    30.29R WCI  13
WORTHINGTON    CLEAR     34  12  40 NW20      30.32R WCI  22
$$

IAZ001>003-012>014-020>022-031-032-NEZ013-014-SDZ071-020100-
NORTHWEST IOWA

CITY           SKY/WX    TMP DP  RH WIND       PRES   REMARKS
CHEROKEE       CLOUDY    31  17  55 W5        30.33R WCI  26
DENISON        CLEAR     30  18  59 CALM      30.33S
ESTHERVILLE    CLEAR     25  16  68 W10       30.30R WCI  15
LE MARS        MOCLDY    32  18  55 N10G21    30.35R WCI  24
ORANGE CITY    PTCLDY    30  16  55 NW9       30.33R WCI  22
SHELDON        PTCLDY    28  18  64 NW12G18   30.32R WCI  18
SIOUX CITY     PTCLDY    37  12  35 NW13      30.35R
6HR MIN TEMP:  30; 6HR MAX TEMP:  39;

SPENCER        CLEAR     26  15  63 W10       30.32R WCI  16
6HR MIN TEMP:  26; 6HR MAX TEMP:  32;

STORM LAKE     CLOUDY    28  19  69 W7        30.32S WCI  21
$$

ABBREVIATIONS USED IN REMARKS
   TC - TEMPERATURE IN CELSIUS
  WCI - WIND CHILL INDEX
   HX - HEAT INDEX
  VSB - VISIBILITY




USA.gov is the U.S. government's official web portal to all federal, state and local government web resources and services.